Location: Strawberry
(45.6646°N, 111.9596°W)
Time: 19:00:40
(UTC+00:00)

Tiangong - Visible Passes

Search period start: 17 August 2022 00:00
Search period end: 27 August 2022 00:00
Orbit: 380 x 385 km, 41.5° (Epoch: 17 August)

Date Brightness Start Highest point End Pass type
(mag) Time Alt. Az. Time Alt. Az. Time Alt. Az.
17 Aug -0.9 03:56:13 10° SW 03:58:51 24° SSE 03:58:53 24° SSE visible
18 Aug -0.6 04:32:17 10° WSW 04:33:59 25° SW 04:33:59 25° SW visible
19 Aug -1.2 03:32:19 10° SW 03:35:10 31° SSE 03:36:45 19° ESE visible
19 Aug 0.8 05:08:42 10° WSW 05:08:55 11° WSW 05:08:55 11° WSW visible
20 Aug -1.5 04:08:35 10° WSW 04:11:33 38° S 04:11:33 38° S visible
21 Aug -1.3 03:08:32 10° WSW 03:11:27 36° S 03:14:07 12° ESE visible
21 Aug 0.1 04:45:06 10° WSW 04:46:17 19° WSW 04:46:17 19° WSW visible
22 Aug -1.3 03:44:55 10° WSW 03:47:51 36° S 03:48:47 28° SSE visible
23 Aug -0.3 04:21:33 10° WSW 04:23:26 22° SW 04:23:26 22° SW visible
24 Aug -1.0 03:21:15 10° WSW 03:24:06 31° SSW 03:25:54 17° SE visible
25 Aug -0.2 03:58:06 10° WSW 04:00:20 18° SSW 04:00:32 18° SSW visible
26 Aug -0.5 02:57:39 10° WSW 03:00:17 24° SSW 03:02:55 10° SE visible
